User: anonymous   Login
Location: Unspecified
(0.0000°N, 0.0000°E)
Time: 03:19:19
(UTC+01:00)
Language:

Cosmos 1898 Rocket - Orbit

View from above orbital plane
View from above orbital plane
View from above satellite
View from above satellite

Ground track
Ground track

The orbit data is extracted from the following two-line orbital elements,

1 18586U 87098B   14332.14615944  .00000308  00000-0  11360-3 0  1826
2 18586 074.0067 211.3240 0020099 130.0075 340.9880 14.36505656413510
Epoch (UTC): 28 November 2014 03:30:28
Eccentricity: 0.0020099
inclination: 74.0067°
perigee height: 756 km
apogee height: 784 km
right ascension of ascending node: 211.3240°
argument of perigee: 130.0075°
revolutions per day: 14.36505656
mean anomaly at epoch: 340.9880°
orbit number at epoch: 41351

The dashed part of the orbit path shows where the satellite is in the earth's shadow,  

DLR